Nenana, AK

5:07 PM AKDT on March 26, 2017 (GMT -0800)
Nenana Municipal

Weather History for PANN - February, 2013

Change the Weather History Date:

Wednesday, February 20, 2013

  Actual Average Record
Temperature  
Mean Temperature 11 °F -  
Max Temperature 42 °F 4 °F 59 °F (1977)
Min Temperature -20 °F -18 °F -31 °F (2007)
Degree Days  
Heating Degree Days 54    
Moisture  
Dew Point -13 °F    
Average Humidity 67    
Maximum Humidity 84    
Minimum Humidity 52    
Precipitation  
Precipitation 0.16 in - - ()
Sea Level Pressure  
Sea Level Pressure 29.49 in    
Wind  
Wind Speed 4 mph (NNW)    
Max Wind Speed 21 mph    
Max Gust Speed -    
Visibility 8 miles    
Events Rain , Snow    
Averages and records for this station are not official NWS values.
T = Trace of Precipitation, MM = Missing Value Source: NWS Daily Summary

Daily Weather History Graph

Daily Weather History Graph

Search for Another Location

Airport or City:

Trip Planner

Search our weather history database for the weather conditions in past years. The results will help you decide how hot, cold, wet, or windy it might be!

Date:

Astronomy

Feb. 20, 2013 Rise Set
Actual Time 8:34 AM AKST 5:46 PM AKST
Civil Twilight 7:44 AM AKST 6:37 PM AKST
Nautical Twilight 6:48 AM AKST 7:33 PM AKST
Astronomical Twilight 5:51 AM AKST 8:29 PM AKST
Moon 11:58 AM AKST (2/20) 6:21 AM AKST (2/20)
Length of Visible Light 10h 52m
Length of Day
9h 11m
Waxing Gibbous, 77% of the Moon is Illuminated
Feb 20
Waxing Gibbous
Feb 25
Full
Mar 4
Last Quarter
Mar 11
New
Mar 19
First Quarter

Hourly Weather History & Observations

Time (AKST) Temp. Windchill Dew Point Humidity Pressure Visibility Wind Dir Wind Speed Gust Speed Precip Events Conditions
12:53 AM -11.9 °F -21.5 °F -18.0 °F 74% 29.59 in 10.0 mi Variable 3.5 mph - N/A   Clear
1:53 AM -15.0 °F -27.4 °F -20.9 °F 75% 29.57 in 10.0 mi SW 4.6 mph - N/A   Clear
3:53 AM -18.0 °F - -23.1 °F 78% 29.55 in 10.0 mi Calm Calm - N/A   Clear
4:53 AM -20.0 °F - -26.0 °F 74% 29.53 in 10.0 mi Calm Calm - N/A   Clear
5:53 AM -20.9 °F - -27.9 °F 70% 29.51 in 10.0 mi Calm Calm - N/A   Clear
6:53 AM -18.0 °F - -24.0 °F 74% 29.50 in 10.0 mi Calm Calm - N/A   Clear
7:53 AM -17.0 °F - -23.1 °F 74% 29.49 in 10.0 mi Calm Calm - N/A   Clear
8:53 AM -16.1 °F - -23.1 °F 71% 29.48 in 10.0 mi Calm Calm - N/A   Clear
9:53 AM -18.9 °F - -24.0 °F 78% 29.48 in 10.0 mi Calm Calm - N/A   Clear
10:53 AM -17.0 °F - -22.0 °F 78% 29.47 in 10.0 mi Calm Calm - N/A   Clear
11:53 AM -5.1 °F - -15.0 °F 62% 29.46 in 10.0 mi Calm Calm - N/A   Clear
12:53 PM -0.0 °F -9.9 °F -13.0 °F 54% 29.45 in 10.0 mi NW 4.6 mph - N/A   Clear
1:53 PM 1.0 °F - -11.9 °F 55% 29.44 in 10.0 mi Calm Calm - N/A   Mostly Cloudy
2:53 PM 3.0 °F -8.0 °F -11.0 °F 52% 29.43 in 10.0 mi North 5.8 mph - N/A   Overcast
4:53 PM 1.0 °F -10.3 °F -11.9 °F 55% 29.44 in 10.0 mi NNE 5.8 mph - N/A   Overcast
5:53 PM -0.9 °F -14.1 °F -13.0 °F 57% 29.44 in 10.0 mi NNW 6.9 mph - N/A   Overcast
6:53 PM -2.9 °F -16.5 °F -15.0 °F 56% 29.44 in 10.0 mi NNW 6.9 mph - N/A   Overcast
7:53 PM -2.9 °F -15.0 °F -14.1 °F 59% 29.46 in 10.0 mi NW 5.8 mph - N/A   Overcast
8:53 PM -4.0 °F -19.0 °F -15.0 °F 59% 29.47 in 10.0 mi NNW 8.1 mph - N/A   Overcast
9:53 PM -4.0 °F -17.8 °F -13.0 °F 65% 29.48 in 4.0 mi NNW 6.9 mph - 0.00 in Snow Light Snow
10:12 PM -2.2 °F -15.6 °F -13.0 °F 60% 29.44 in 2.5 mi NNW 6.9 mph - 0.00 in Snow Light Snow
10:29 PM -2.2 °F -15.6 °F -11.2 °F 66% 29.44 in 1.8 mi NNW 6.9 mph - 0.00 in Snow Light Snow
10:38 PM -4.0 °F -17.8 °F -11.2 °F 71% 29.44 in 2.0 mi NNW 6.9 mph - 0.00 in Snow Light Snow
10:53 PM -2.9 °F -16.5 °F -11.0 °F 68% 29.49 in 2.0 mi North 6.9 mph - 0.01 in Snow Light Snow
11:53 PM -4.0 °F -17.8 °F -11.0 °F 72% 29.49 in 2.0 mi NNW 6.9 mph - 0.01 in Snow Light Snow